Landsat 7 - Orbit

View from above orbital plane
View from above orbital plane
View from above satellite
View from above satellite

Ground track
Ground track

The orbit data is extracted from the following two-line orbital elements,

1 25682U 99020A   13169.27548981  .00000155  00000-0  44386-4 0  2383
2 25682 098.1914 238.6606 0001531 089.9707 270.1668 14.57118066753990
Epoch (UTC): 18 June 2013 06:36:42
Eccentricity: 0.0001531
inclination: 98.1914°
perigee height: 701 km
apogee height: 703 km
right ascension of ascending node: 238.6606°
argument of perigee: 89.9707°
revolutions per day: 14.57118066
mean anomaly at epoch: 270.1668°
orbit number at epoch: 75399

The dashed part of the orbit path shows where the satellite is in the earth's shadow,  

Developed and maintained by Chris Peat, Heavens-Above GmbH. Please read the updated FAQ before sending e-mail. Imprint. DLR